Location: Addison Town Hall
(32.9525°N, 96.8158°W)
Time: 22:01:20
(UTC+00:00)

ATLAS 2AS CENTAUR R/B - Pass Details

Date: 08 March 2021
Orbit: 947 x 1265 km, 63.7° (Epoch: 10 April)

Event Time Altitude Azimuth Distance (km) Brightness Sun altitude
Exits shadow 12:18:20 - 238° (WSW) 4,155 5.3 -6.7°
Reaches altitude 10° 12:21:21 10° 247° (WSW) 3,233 4.7 -6.0°
Maximum altitude 12:28:22 34° 310° (NW) 1,945 3.7 -4.6°
Drops below altitude 10° 12:35:23 10° 13° (NNE) 3,222 5.4 -3.1°
Sets 12:38:29 0° 23° (NNE) 4,163 6.0 -2.4°
